GTI559 KMIA-KATL

Flight info

Callsign GTI559
Flight time 1h 25m
Altitude 34000
Route FLMGO2 STYMY Q77 MJAMS/N0470F350 Q77 SHRKS/N0465F340 LAIRI LARZZ JJEDI4
Aircraft B77L/H-SDE1E2E3FGHIJ2J3J4J5M1RWXY/LB1D1

Departure

Time 2026-05-03 21:22
Airport Miami International Airport (KMIA)

Arrival

Time 2026-05-03 22:47
Airport Hartsfield Jackson Atlanta International Airport (KATL)
Time Latitude Longitude Altitude Speed Heading
2026-05-03 21:00 25.79069 -80.29060 18 ft 0 kts 209°
2026-05-03 21:11 25.79070 -80.29060 18 ft 2 kts 209°
2026-05-03 21:11 25.79086 -80.29049 19 ft 3 kts 210°
2026-05-03 21:11 25.79103 -80.29040 21 ft 3 kts 181°
2026-05-03 21:12 25.79121 -80.29044 22 ft 3 kts 140°
2026-05-03 21:12 25.79128 -80.29051 22 ft 0 kts 123°
2026-05-03 21:14 25.79123 -80.29039 18 ft 4 kts 110°
2026-05-03 21:15 25.79115 -80.29000 16 ft 6 kts 105°
2026-05-03 21:15 25.79100 -80.28956 16 ft 6 kts 115°
2026-05-03 21:15 25.79081 -80.28913 17 ft 6 kts 121°
2026-05-03 21:15 25.79047 -80.28884 18 ft 6 kts 158°
2026-05-03 21:16 25.78996 -80.28873 19 ft 9 kts 176°
2026-05-03 21:16 25.78940 -80.28912 20 ft 11 kts 242°
2026-05-03 21:16 25.78916 -80.29003 20 ft 14 kts 256°
2026-05-03 21:16 25.78903 -80.29123 19 ft 18 kts 268°
2026-05-03 21:17 25.78898 -80.29269 19 ft 18 kts 267°
2026-05-03 21:17 25.78895 -80.29361 25 ft 17 kts 267°
2026-05-03 21:17 25.78888 -80.29530 28 ft 18 kts 267°
2026-05-03 21:17 25.78881 -80.29680 24 ft 21 kts 267°
2026-05-03 21:18 25.78874 -80.29848 25 ft 19 kts 267°
2026-05-03 21:18 25.78868 -80.29994 28 ft 19 kts 267°
2026-05-03 21:18 25.78862 -80.30141 26 ft 19 kts 265°
2026-05-03 21:18 25.78853 -80.30288 25 ft 19 kts 267°
2026-05-03 21:19 25.78847 -80.30434 22 ft 19 kts 267°
2026-05-03 21:19 25.78841 -80.30579 21 ft 19 kts 267°
2026-05-03 21:19 25.78835 -80.30726 19 ft 19 kts 267°
2026-05-03 21:19 25.78829 -80.30861 22 ft 17 kts 268°
2026-05-03 21:20 25.78824 -80.30993 25 ft 17 kts 268°
2026-05-03 21:20 25.78819 -80.31124 24 ft 17 kts 268°
2026-05-03 21:20 25.78814 -80.31256 24 ft 17 kts 268°
2026-05-03 21:20 25.78784 -80.31367 27 ft 14 kts 212°
2026-05-03 21:21 25.78688 -80.31377 23 ft 15 kts 178°
2026-05-03 21:21 25.78623 -80.31307 26 ft 15 kts 92°
2026-05-03 21:21 25.78627 -80.31160 24 ft 32 kts 87°
2026-05-03 21:21 25.78653 -80.30526 24 ft 136 kts 87°
2026-05-03 21:22 25.78708 -80.29171 406 ft 193 kts 87°
2026-05-03 21:22 25.78757 -80.27583 1215 ft 217 kts 88°
2026-05-03 21:22 25.78832 -80.25882 2325 ft 228 kts 85°
2026-05-03 21:22 25.78968 -80.24080 3297 ft 239 kts 84°
2026-05-03 21:23 25.79124 -80.22217 4224 ft 245 kts 83°
2026-05-03 21:23 25.79473 -80.20349 5095 ft 251 kts 74°
2026-05-03 21:23 25.79983 -80.18491 6057 ft 250 kts 68°
2026-05-03 21:23 25.80981 -80.16903 6726 ft 257 kts 39°
2026-05-03 21:24 25.82600 -80.16040 6966 ft 265 kts 13°
2026-05-03 21:24 25.84436 -80.15924 6971 ft 263 kts
2026-05-03 21:24 25.86272 -80.15892 6972 ft 266 kts
2026-05-03 21:24 25.88122 -80.15805 6965 ft 265 kts
2026-05-03 21:25 25.89921 -80.15807 6957 ft 259 kts 352°
2026-05-03 21:25 25.91629 -80.16412 6968 ft 259 kts 338°
2026-05-03 21:25 25.93334 -80.17142 6980 ft 267 kts 343°
2026-05-03 21:25 25.95121 -80.17761 6975 ft 269 kts 344°
2026-05-03 21:26 25.96906 -80.18366 6997 ft 267 kts 344°
2026-05-03 21:26 25.98681 -80.19003 7512 ft 266 kts 339°
2026-05-03 21:26 26.00237 -80.20144 8336 ft 270 kts 316°
2026-05-03 21:26 26.01562 -80.21645 9093 ft 275 kts 317°
2026-05-03 21:27 26.02975 -80.23111 9987 ft 278 kts 319°
2026-05-03 21:27 26.04417 -80.24551 10729 ft 290 kts 319°
2026-05-03 21:27 26.05999 -80.26120 10987 ft 320 kts 319°
2026-05-03 21:27 26.07733 -80.27840 11277 ft 346 kts 319°
2026-05-03 21:28 26.09553 -80.29649 12019 ft 356 kts 319°
2026-05-03 21:28 26.11423 -80.31507 12888 ft 362 kts 319°
2026-05-03 21:28 26.13312 -80.33386 13790 ft 366 kts 319°
2026-05-03 21:28 26.15230 -80.35293 14674 ft 371 kts 319°
2026-05-03 21:29 26.17165 -80.37219 15508 ft 376 kts 319°
2026-05-03 21:29 26.19132 -80.39176 15994 ft 382 kts 319°
2026-05-03 21:29 26.21119 -80.41154 15954 ft 384 kts 319°
2026-05-03 21:29 26.23131 -80.43084 15945 ft 377 kts 324°
2026-05-03 21:30 26.25368 -80.44558 15991 ft 380 kts 335°
2026-05-03 21:30 26.27778 -80.45781 15969 ft 381 kts 338°
2026-05-03 21:30 26.30212 -80.46945 15976 ft 380 kts 338°
2026-05-03 21:30 26.32631 -80.48132 15969 ft 380 kts 337°
2026-05-03 21:31 26.35045 -80.49361 16165 ft 383 kts 336°
2026-05-03 21:31 26.37465 -80.50624 17077 ft 384 kts 336°
2026-05-03 21:31 26.39890 -80.51906 17913 ft 387 kts 335°
2026-05-03 21:31 26.42337 -80.53208 18637 ft 393 kts 335°
2026-05-03 21:32 26.44822 -80.54532 19319 ft 398 kts 335°
2026-05-03 21:32 26.47335 -80.55872 20040 ft 402 kts 335°
2026-05-03 21:32 26.49896 -80.57139 20688 ft 405 kts 341°
2026-05-03 21:32 26.52601 -80.58096 21302 ft 410 kts 346°
2026-05-03 21:33 26.55372 -80.58902 21988 ft 413 kts 347°
2026-05-03 21:33 26.58168 -80.59690 22667 ft 416 kts 347°
2026-05-03 21:33 26.60984 -80.60508 23281 ft 420 kts 346°
2026-05-03 21:33 26.63829 -80.61367 23889 ft 425 kts 346°
2026-05-03 21:34 26.65720 -80.61952 24280 ft 427 kts 345°
2026-05-03 21:34 26.68590 -80.62855 24877 ft 431 kts 345°
2026-05-03 21:34 26.71490 -80.63776 25448 ft 434 kts 345°
2026-05-03 21:34 26.75363 -80.65012 26188 ft 439 kts 345°
2026-05-03 21:35 26.78316 -80.65956 26715 ft 443 kts 345°
2026-05-03 21:35 26.80327 -80.66598 27067 ft 445 kts 345°
2026-05-03 21:35 26.83280 -80.67540 27575 ft 448 kts 345°
2026-05-03 21:35 26.86299 -80.68504 28076 ft 452 kts 345°
2026-05-03 21:36 26.89340 -80.69475 28562 ft 455 kts 345°
2026-05-03 21:36 26.92396 -80.70458 29028 ft 458 kts 344°
2026-05-03 21:36 26.95446 -80.71550 29495 ft 461 kts 342°
2026-05-03 21:36 26.98470 -80.72717 30097 ft 459 kts 342°
2026-05-03 21:37 27.01476 -80.73896 30762 ft 456 kts 342°
2026-05-03 21:37 27.04429 -80.75046 31337 ft 454 kts 342°
2026-05-03 21:37 27.07413 -80.76196 31857 ft 454 kts 342°
2026-05-03 21:37 27.10404 -80.77337 32350 ft 453 kts 342°
2026-05-03 21:38 27.13384 -80.78467 32874 ft 452 kts 342°
2026-05-03 21:38 27.16384 -80.79603 32959 ft 458 kts 342°
2026-05-03 21:38 27.22407 -80.81887 32958 ft 453 kts 342°
2026-05-03 21:39 27.28353 -80.84146 32964 ft 450 kts 342°
2026-05-03 21:39 27.34251 -80.86410 32971 ft 450 kts 341°
2026-05-03 21:40 27.40154 -80.88836 32972 ft 451 kts 340°
2026-05-03 21:40 27.46049 -80.91294 32963 ft 452 kts 341°
2026-05-03 21:41 27.51954 -80.93741 32965 ft 452 kts 341°
2026-05-03 21:41 27.57833 -80.96170 32966 ft 452 kts 341°
2026-05-03 21:42 27.63762 -80.98619 32972 ft 453 kts 341°
2026-05-03 21:42 27.69682 -81.01068 32964 ft 453 kts 341°
2026-05-03 21:43 27.75561 -81.03502 32969 ft 452 kts 341°
2026-05-03 21:43 27.81476 -81.05956 32968 ft 452 kts 341°
2026-05-03 21:44 27.87387 -81.08410 32971 ft 452 kts 341°
2026-05-03 21:44 27.93293 -81.10865 32964 ft 452 kts 341°
2026-05-03 21:45 27.99193 -81.13321 32967 ft 451 kts 341°
2026-05-03 21:45 28.05052 -81.15794 32969 ft 452 kts 339°
2026-05-03 21:46 28.10797 -81.18720 32976 ft 452 kts 335°
2026-05-03 21:46 28.16494 -81.21748 32970 ft 452 kts 336°
2026-05-03 21:47 28.22187 -81.24706 32971 ft 452 kts 336°
2026-05-03 21:47 28.27924 -81.27661 32968 ft 452 kts 336°
2026-05-03 21:48 28.33657 -81.30617 32963 ft 452 kts 336°
2026-05-03 21:48 28.39374 -81.33547 32969 ft 452 kts 336°
2026-05-03 21:49 28.45108 -81.36467 32970 ft 452 kts 336°
2026-05-03 21:49 28.50852 -81.39399 32964 ft 452 kts 336°
2026-05-03 21:50 28.56597 -81.42338 32970 ft 452 kts 336°
2026-05-03 21:50 28.62341 -81.45281 32969 ft 452 kts 336°
2026-05-03 21:51 28.68038 -81.48205 32968 ft 452 kts 336°
2026-05-03 21:51 28.73783 -81.51156 32969 ft 452 kts 336°
2026-05-03 21:52 28.79517 -81.54105 32965 ft 452 kts 336°
2026-05-03 21:52 28.85252 -81.57058 32970 ft 452 kts 336°
2026-05-03 21:53 28.90997 -81.59867 32955 ft 451 kts 342°
2026-05-03 21:53 28.97141 -81.61397 32959 ft 449 kts 355°
2026-05-03 21:54 29.03335 -81.61886 32964 ft 448 kts 357°
2026-05-03 21:54 29.09561 -81.62437 32971 ft 449 kts 356°
2026-05-03 21:55 29.15799 -81.63015 32971 ft 449 kts 356°
2026-05-03 21:55 29.21993 -81.63588 32967 ft 449 kts 356°
2026-05-03 21:56 29.28222 -81.64162 32969 ft 449 kts 356°
2026-05-03 21:56 29.34452 -81.64737 32965 ft 449 kts 356°
2026-05-03 21:57 29.40679 -81.65312 32966 ft 449 kts 356°
2026-05-03 21:57 29.46874 -81.65884 32968 ft 449 kts 356°
2026-05-03 21:58 29.53104 -81.66460 32969 ft 449 kts 356°
2026-05-03 21:58 29.59330 -81.67037 32966 ft 449 kts 356°
2026-05-03 21:59 29.65560 -81.67615 32966 ft 449 kts 356°
2026-05-03 21:59 29.71784 -81.68192 32964 ft 448 kts 356°
2026-05-03 22:00 29.78013 -81.68766 32969 ft 448 kts 356°
2026-05-03 22:00 29.84201 -81.69335 32968 ft 449 kts 356°
2026-05-03 22:01 29.90425 -81.69910 32970 ft 449 kts 356°
2026-05-03 22:01 29.96655 -81.70485 32967 ft 449 kts 356°
2026-05-03 22:02 30.02843 -81.71059 32968 ft 448 kts 356°
2026-05-03 22:02 30.09070 -81.71637 32972 ft 448 kts 356°
2026-05-03 22:03 30.15296 -81.72214 32966 ft 448 kts 356°
2026-05-03 22:03 30.21519 -81.72792 32966 ft 448 kts 356°
2026-05-03 22:04 30.27737 -81.73370 32968 ft 448 kts 356°
2026-05-03 22:04 30.33956 -81.73968 32960 ft 448 kts 354°
2026-05-03 22:05 30.39976 -81.75670 32963 ft 450 kts 339°
2026-05-03 22:05 30.45706 -81.78632 32966 ft 451 kts 337°
2026-05-03 22:06 30.51474 -81.81540 32965 ft 451 kts 338°
2026-05-03 22:06 30.57240 -81.84417 32964 ft 451 kts 338°
2026-05-03 22:07 30.62972 -81.87284 32970 ft 451 kts 338°
2026-05-03 22:07 30.68737 -81.90176 32971 ft 451 kts 338°
2026-05-03 22:08 30.74502 -81.93073 32965 ft 451 kts 338°
2026-05-03 22:08 30.80265 -81.95973 32968 ft 451 kts 338°
2026-05-03 22:09 30.86031 -81.98878 32965 ft 451 kts 338°
2026-05-03 22:10 30.94636 -82.03222 32970 ft 451 kts 337°
2026-05-03 22:10 31.00395 -82.06133 32962 ft 451 kts 338°
2026-05-03 22:11 31.06147 -82.09045 32965 ft 451 kts 337°
2026-05-03 22:11 31.11899 -82.11961 32970 ft 451 kts 337°
2026-05-03 22:12 31.17652 -82.14881 32970 ft 451 kts 337°
2026-05-03 22:12 31.23403 -82.17804 32964 ft 451 kts 337°
2026-05-03 22:13 31.29123 -82.20715 32963 ft 451 kts 337°
2026-05-03 22:13 31.34872 -82.23644 32967 ft 451 kts 337°
2026-05-03 22:14 31.40624 -82.26580 32966 ft 451 kts 337°
2026-05-03 22:14 31.46380 -82.29521 32970 ft 451 kts 337°
2026-05-03 22:15 31.52128 -82.32462 32964 ft 451 kts 337°
2026-05-03 22:15 31.57880 -82.35410 32969 ft 451 kts 337°
2026-05-03 22:16 31.63600 -82.38344 32969 ft 451 kts 337°
2026-05-03 22:16 31.69352 -82.41299 32966 ft 451 kts 337°
2026-05-03 22:17 31.75105 -82.44259 32966 ft 451 kts 337°
2026-05-03 22:17 31.80863 -82.47225 32964 ft 451 kts 337°
2026-05-03 22:18 31.86572 -82.50171 32973 ft 451 kts 337°
2026-05-03 22:18 31.92322 -82.53141 32969 ft 451 kts 337°
2026-05-03 22:19 31.97797 -82.56747 32970 ft 451 kts 325°
2026-05-03 22:19 32.02588 -82.61548 32971 ft 452 kts 319°
2026-05-03 22:20 32.07328 -82.66425 32978 ft 452 kts 320°
2026-05-03 22:20 32.12013 -82.71195 32956 ft 436 kts 320°
2026-05-03 22:20 32.14273 -82.73497 32953 ft 422 kts 320°
2026-05-03 22:21 32.16487 -82.75756 32957 ft 419 kts 320°
2026-05-03 22:21 32.20894 -82.80257 32968 ft 419 kts 320°
2026-05-03 22:22 32.25301 -82.84766 32971 ft 419 kts 320°
2026-05-03 22:22 32.28969 -82.88525 32975 ft 420 kts 320°
2026-05-03 22:23 32.33386 -82.93058 32975 ft 421 kts 320°
2026-05-03 22:23 32.37812 -82.97603 32975 ft 421 kts 320°
2026-05-03 22:24 32.42212 -83.02133 32942 ft 421 kts 320°
2026-05-03 22:24 32.44424 -83.04414 32711 ft 423 kts 320°
2026-05-03 22:24 32.46655 -83.06715 32176 ft 424 kts 320°
2026-05-03 22:24 32.48852 -83.08984 31544 ft 415 kts 320°
2026-05-03 22:25 32.51011 -83.11216 30910 ft 407 kts 320°
2026-05-03 22:25 32.53128 -83.13406 30238 ft 401 kts 320°
2026-05-03 22:25 32.55228 -83.15577 29488 ft 398 kts 320°
2026-05-03 22:25 32.57275 -83.17696 28747 ft 394 kts 320°
2026-05-03 22:26 32.59331 -83.19825 27999 ft 391 kts 320°
2026-05-03 22:26 32.61370 -83.21939 27259 ft 387 kts 320°
2026-05-03 22:26 32.63388 -83.24032 26515 ft 384 kts 320°
2026-05-03 22:26 32.65392 -83.26112 25769 ft 381 kts 320°
2026-05-03 22:27 32.67376 -83.28173 25026 ft 378 kts 320°
2026-05-03 22:27 32.69347 -83.30224 24274 ft 375 kts 320°
2026-05-03 22:27 32.71304 -83.32258 23525 ft 372 kts 320°
2026-05-03 22:27 32.73240 -83.34272 22787 ft 369 kts 320°
2026-05-03 22:28 32.75166 -83.36278 22043 ft 366 kts 320°
2026-05-03 22:28 32.77077 -83.38269 21301 ft 363 kts 320°
2026-05-03 22:28 32.78968 -83.40241 20575 ft 361 kts 320°
2026-05-03 22:28 32.80826 -83.42179 19823 ft 358 kts 320°
2026-05-03 22:29 32.82690 -83.44125 19051 ft 354 kts 320°
2026-05-03 22:29 32.84537 -83.46055 18322 ft 351 kts 320°
2026-05-03 22:29 32.86361 -83.47962 17577 ft 348 kts 320°
2026-05-03 22:29 32.88167 -83.49851 16832 ft 344 kts 320°
2026-05-03 22:30 32.89994 -83.51761 16295 ft 355 kts 320°
2026-05-03 22:30 32.91832 -83.53685 15855 ft 347 kts 320°
2026-05-03 22:30 32.93597 -83.55535 15436 ft 327 kts 320°
2026-05-03 22:30 32.95253 -83.57272 15048 ft 307 kts 320°
2026-05-03 22:31 32.96819 -83.58913 14703 ft 297 kts 320°
2026-05-03 22:31 32.98378 -83.60543 14362 ft 300 kts 320°
2026-05-03 22:31 32.99970 -83.62209 14011 ft 308 kts 320°
2026-05-03 22:31 33.01572 -83.63886 13637 ft 313 kts 320°
2026-05-03 22:32 33.03211 -83.65605 13259 ft 313 kts 320°
2026-05-03 22:32 33.04840 -83.67315 12869 ft 311 kts 320°
2026-05-03 22:32 33.06456 -83.69013 12493 ft 309 kts 320°
2026-05-03 22:32 33.08063 -83.70701 12121 ft 306 kts 320°
2026-05-03 22:33 33.09654 -83.72373 11753 ft 304 kts 320°
2026-05-03 22:33 33.11239 -83.74039 11388 ft 301 kts 320°
2026-05-03 22:33 33.12790 -83.75672 11233 ft 291 kts 320°
2026-05-03 22:33 33.14284 -83.77245 11031 ft 283 kts 320°
2026-05-03 22:34 33.15757 -83.78799 10661 ft 281 kts 320°
2026-05-03 22:34 33.17213 -83.80338 10364 ft 278 kts 320°
2026-05-03 22:34 33.18635 -83.81840 10092 ft 273 kts 320°
2026-05-03 22:34 33.19999 -83.83344 9976 ft 261 kts 316°
2026-05-03 22:35 33.21260 -83.84856 9816 ft 252 kts 316°
2026-05-03 22:35 33.22598 -83.86223 9435 ft 254 kts 325°
2026-05-03 22:35 33.24045 -83.87455 9097 ft 258 kts 326°
2026-05-03 22:35 33.25538 -83.88697 9048 ft 264 kts 326°
2026-05-03 22:36 33.27040 -83.89958 9013 ft 262 kts 326°
2026-05-03 22:36 33.28526 -83.91218 8807 ft 258 kts 326°
2026-05-03 22:36 33.29964 -83.92449 8617 ft 250 kts 326°
2026-05-03 22:36 33.31359 -83.93648 8340 ft 245 kts 326°
2026-05-03 22:37 33.32738 -83.94836 7974 ft 243 kts 325°
2026-05-03 22:37 33.34060 -83.95978 7893 ft 230 kts 325°
2026-05-03 22:37 33.35343 -83.97091 7860 ft 223 kts 325°
2026-05-03 22:37 33.36668 -83.98239 7952 ft 252 kts 325°
2026-05-03 22:38 33.38118 -83.99497 7932 ft 257 kts 325°
2026-05-03 22:38 33.39570 -84.00764 7848 ft 261 kts 325°
2026-05-03 22:38 33.41051 -84.02055 7515 ft 262 kts 325°
2026-05-03 22:38 33.42494 -84.03314 7250 ft 251 kts 325°
2026-05-03 22:39 33.43890 -84.04535 6957 ft 246 kts 325°
2026-05-03 22:39 33.45267 -84.05736 6707 ft 243 kts 325°
2026-05-03 22:39 33.46614 -84.06915 6446 ft 241 kts 325°
2026-05-03 22:39 33.47951 -84.08083 6193 ft 235 kts 325°
2026-05-03 22:40 33.49254 -84.09222 5917 ft 228 kts 325°
2026-05-03 22:40 33.50544 -84.10350 5668 ft 230 kts 325°
2026-05-03 22:40 33.51837 -84.11481 5420 ft 231 kts 325°
2026-05-03 22:40 33.53130 -84.12615 5192 ft 230 kts 325°
2026-05-03 22:41 33.54408 -84.13735 4913 ft 225 kts 325°
2026-05-03 22:41 33.55646 -84.14821 4746 ft 214 kts 325°
2026-05-03 22:41 33.56826 -84.15856 4552 ft 207 kts 325°
2026-05-03 22:41 33.57989 -84.16871 4265 ft 206 kts 325°
2026-05-03 22:42 33.59127 -84.17871 4026 ft 204 kts 325°
2026-05-03 22:42 33.60269 -84.18872 3807 ft 201 kts 325°
2026-05-03 22:42 33.61399 -84.19863 3602 ft 201 kts 325°
2026-05-03 22:42 33.62482 -84.20895 3388 ft 196 kts 313°
2026-05-03 22:43 33.63032 -84.22337 3149 ft 190 kts 276°
2026-05-03 22:43 33.63059 -84.23932 3016 ft 192 kts 274°
2026-05-03 22:43 33.63151 -84.25532 2825 ft 190 kts 273°
2026-05-03 22:43 33.63177 -84.27039 2739 ft 177 kts 271°
2026-05-03 22:44 33.63179 -84.28488 2700 ft 171 kts 271°
2026-05-03 22:44 33.63184 -84.29928 2696 ft 173 kts 270°
2026-05-03 22:44 33.63184 -84.31385 2688 ft 174 kts 271°
2026-05-03 22:44 33.63183 -84.32825 2453 ft 169 kts 271°
2026-05-03 22:45 33.63180 -84.34205 2251 ft 163 kts 271°
2026-05-03 22:45 33.63179 -84.35573 2041 ft 163 kts 271°
2026-05-03 22:45 33.63182 -84.36929 1820 ft 162 kts 271°
2026-05-03 22:45 33.63180 -84.38277 1608 ft 161 kts 270°
2026-05-03 22:46 33.63181 -84.39616 1397 ft 160 kts 270°
2026-05-03 22:46 33.63181 -84.40950 1184 ft 159 kts 270°
2026-05-03 22:46 33.63178 -84.42255 1025 ft 158 kts 270°
2026-05-03 22:46 33.63181 -84.43378 1012 ft 88 kts 270°
2026-05-03 22:47 33.63182 -84.43874 1009 ft 53 kts 270°
2026-05-03 22:47 33.63150 -84.44138 1009 ft 15 kts 211°
2026-05-03 22:47 33.63077 -84.44094 1010 ft 15 kts 99°
2026-05-03 22:47 33.63072 -84.43972 1010 ft 15 kts 88°
2026-05-03 22:48 33.63075 -84.43850 1010 ft 15 kts 88°
2026-05-03 22:48 33.63075 -84.43727 1010 ft 15 kts 91°
2026-05-03 22:48 33.63073 -84.43605 1011 ft 15 kts 91°
2026-05-03 22:48 33.63072 -84.43484 1011 ft 15 kts 89°
2026-05-03 22:49 33.63073 -84.43362 1012 ft 15 kts 89°
2026-05-03 22:49 33.63074 -84.43240 1012 ft 15 kts 89°
2026-05-03 22:49 33.63074 -84.43117 1011 ft 15 kts 89°
2026-05-03 22:49 33.63074 -84.42996 1011 ft 15 kts 96°
2026-05-03 22:50 33.63001 -84.42919 1011 ft 15 kts 161°
2026-05-03 22:50 33.62914 -84.42857 1011 ft 15 kts 165°
2026-05-03 22:50 33.62819 -84.42859 1011 ft 15 kts 225°
2026-05-03 22:50 33.62810 -84.42948 1011 ft 0 kts 271°